User: anonymous   Login
Location: ?????
(54.9266°N, 38.5527°E)
Time: 02:21:06
(UTC+00:00)
Language:

ALOS - Orbit

View from above orbital plane
View from above orbital plane
View from above satellite
View from above satellite

Ground track
Ground track

The orbit data is extracted from the following two-line orbital elements,

1 28931U 06002A   24167.51878345  .00002220  00000-0  41528-3 0  9991
2 28931  98.0362 120.6122 0002273 110.5640 249.5808 14.65828050980730
Epoch (UTC): 15 June 2024 12:27:02
Eccentricity: 0.0002273
inclination: 98.0362°
perigee height: 673 km
apogee height: 676 km
right ascension of ascending node: 120.6122°
argument of perigee: 110.5640°
revolutions per day: 14.65828050
mean anomaly at epoch: 249.5808°
orbit number at epoch: 98073

The dashed part of the orbit path shows where the satellite is in the earth's shadow,  

DLR